TimeCST,TemperatureF,Dew PointF,Humidity,Sea Level PressureIn,VisibilityMPH,Wind Direction,Wind SpeedMPH,Gust SpeedMPH,PrecipitationIn,Events,Conditions,WindDirDegrees,DateUTC
12:55 AM,53.8,53.8,100,30.13,0.2,ESE,6.9,-,N/A,Fog,Fog,120,2014-02-02 06:55:00
1:55 AM,53.8,53.8,100,30.13,0.2,ESE,6.9,-,N/A,Fog,Fog,120,2014-02-02 07:55:00
2:55 AM,53.4,53.4,100,30.11,0.5,ESE,6.9,-,N/A,Fog,Fog,110,2014-02-02 08:55:00
3:55 AM,53.1,53.1,100,30.12,0.5,Variable,1.2,-,N/A,Fog,Fog,0,2014-02-02 09:55:00
4:01 AM,53.6,53.6,100,30.10,0.5,NNE,3.5,-,N/A,Fog,Fog,30,2014-02-02 10:01:00
4:25 AM,53.6,53.6,100,30.10,1.8,East,2.3,-,N/A,,Overcast,90,2014-02-02 10:25:00
4:37 AM,53.6,53.6,100,30.10,5.0,East,3.5,-,N/A,,Overcast,90,2014-02-02 10:37:00
4:55 AM,53.1,53.1,100,30.12,7.0,East,3.5,-,N/A,,Overcast,90,2014-02-02 10:55:00
5:55 AM,52.0,52.0,100,30.13,5.0,ESE,3.5,-,N/A,,Mostly Cloudy,110,2014-02-02 11:55:00
6:16 AM,51.8,51.8,100,30.12,3.0,SE,5.8,-,N/A,,Overcast,130,2014-02-02 12:16:00
6:55 AM,50.9,50.9,100,30.14,5.0,East,4.6,-,N/A,,Overcast,100,2014-02-02 12:55:00
7:10 AM,51.8,51.8,100,30.12,1.0,East,4.6,-,N/A,,Overcast,90,2014-02-02 13:10:00
7:19 AM,51.8,51.8,100,30.12,0.2,East,5.8,-,N/A,,Overcast,100,2014-02-02 13:19:00
7:33 AM,51.8,51.8,100,30.12,0.2,ESE,8.1,-,N/A,Fog,Fog,110,2014-02-02 13:33:00
7:55 AM,52.9,52.9,100,30.14,0.2,ESE,8.1,-,N/A,Fog,Fog,110,2014-02-02 13:55:00
8:55 AM,54.3,54.3,100,30.15,0.2,ESE,9.2,-,N/A,Fog,Fog,110,2014-02-02 14:55:00
9:35 AM,55.4,55.4,100,30.13,1.0,East,9.2,-,N/A,,Overcast,100,2014-02-02 15:35:00
9:43 AM,55.4,55.4,100,30.13,2.0,ESE,9.2,-,N/A,,Overcast,120,2014-02-02 15:43:00
9:55 AM,55.4,55.4,100,30.15,4.0,SE,8.1,-,N/A,,Overcast,130,2014-02-02 15:55:00
10:05 AM,55.4,55.4,100,30.13,5.0,SE,6.9,-,N/A,,Overcast,140,2014-02-02 16:05:00
10:28 AM,57.2,57.2,100,30.13,7.0,ESE,10.4,-,N/A,,Mostly Cloudy,120,2014-02-02 16:28:00
10:38 AM,57.2,57.2,100,30.12,10.0,ESE,9.2,-,N/A,,Mostly Cloudy,110,2014-02-02 16:38:00
10:51 AM,57.2,57.2,100,30.12,10.0,ESE,9.2,-,N/A,,Mostly Cloudy,120,2014-02-02 16:51:00
10:55 AM,57.4,57.4,100,30.14,10.0,ESE,9.2,-,N/A,,Mostly Cloudy,120,2014-02-02 16:55:00
11:36 AM,59.0,59.0,100,30.10,10.0,SE,13.8,-,N/A,,Mostly Cloudy,130,2014-02-02 17:36:00
11:55 AM,59.2,59.2,100,30.11,10.0,SSE,12.7,-,N/A,,Mostly Cloudy,160,2014-02-02 17:55:00
12:04 PM,59.0,59.0,100,30.09,10.0,SE,12.7,-,N/A,,Mostly Cloudy,140,2014-02-02 18:04:00
12:55 PM,58.5,58.5,100,30.08,10.0,SE,11.5,-,N/A,,Overcast,130,2014-02-02 18:55:00
1:34 PM,60.8,57.2,88,30.04,10.0,SE,11.5,-,N/A,,Overcast,140,2014-02-02 19:34:00
1:55 PM,60.6,57.6,90,30.06,10.0,SE,12.7,-,N/A,,Overcast,130,2014-02-02 19:55:00
2:07 PM,60.8,57.2,88,30.03,10.0,SE,12.7,-,N/A,,Overcast,130,2014-02-02 20:07:00
2:34 PM,59.0,59.0,100,30.02,10.0,SE,10.4,-,N/A,,Overcast,130,2014-02-02 20:34:00
2:43 PM,59.0,59.0,100,30.02,2.5,SE,10.4,-,N/A,,Overcast,130,2014-02-02 20:43:00
2:48 PM,59.0,59.0,100,30.02,0.5,SE,11.5,-,N/A,Fog,Fog,130,2014-02-02 20:48:00
2:59 PM,59.0,59.0,100,30.04,0.2,ESE,10.4,-,N/A,Fog,Fog,120,2014-02-02 20:59:00
3:08 PM,59.0,59.0,100,30.03,0.2,ESE,10.4,-,N/A,Fog,Fog,120,2014-02-02 21:08:00
3:18 PM,59.0,59.0,100,30.02,0.2,ESE,11.5,-,N/A,Fog,Fog,120,2014-02-02 21:18:00
3:27 PM,59.0,59.0,100,30.03,0.2,ESE,10.4,-,N/A,Fog,Fog,120,2014-02-02 21:27:00
3:55 PM,58.3,58.3,100,30.05,0.2,ESE,10.4,-,N/A,Fog,Fog,120,2014-02-02 21:55:00
4:55 PM,58.8,58.8,100,30.06,0.2,ESE,9.2,-,N/A,Fog,Fog,120,2014-02-02 22:55:00
5:24 PM,59.0,59.0,100,30.03,0.2,ESE,8.1,-,N/A,Fog,Fog,120,2014-02-02 23:24:00
5:55 PM,59.0,59.0,100,30.05,0.3,ESE,9.2,-,N/A,Fog,Fog,120,2014-02-02 23:55:00
6:44 PM,59.0,59.0,100,30.02,0.3,ESE,10.4,-,N/A,Fog,Fog,120,2014-02-03 00:44:00
6:55 PM,59.2,59.2,100,30.04,0.3,ESE,9.2,-,N/A,Fog,Fog,120,2014-02-03 00:55:00
7:29 PM,59.0,59.0,100,30.02,0.2,ESE,10.4,-,N/A,Fog,Fog,120,2014-02-03 01:29:00
7:57 PM,59.0,59.0,100,30.04,0.2,ESE,8.1,-,N/A,Fog,Fog,120,2014-02-03 01:57:00
8:55 PM,58.8,58.8,100,30.04,0.2,ESE,6.9,-,N/A,Fog,Fog,120,2014-02-03 02:55:00
9:55 PM,59.2,59.2,100,30.04,0.2,ESE,5.8,-,N/A,Fog,Fog,120,2014-02-03 03:55:00
10:55 PM,58.6,58.6,100,30.04,0.2,ESE,5.8,-,N/A,Fog,Fog,120,2014-02-03 04:55:00
11:31 PM,59.0,59.0,100,30.00,0.2,ESE,3.5,-,N/A,Fog,Fog,110,2014-02-03 05:31:00
11:55 PM,58.8,58.8,100,30.03,0.2,ESE,3.5,-,N/A,Fog,Fog,120,2014-02-03 05:55:00